This demonstration page uses our WeatherBlox Daily Observations layout. Learn more.

Left ArrowRight Arrow

41.55636, -103.73856

Hourly Observations for July 9, 2018

Temp ( °F °C ) Dew Point ( °F °C ) Humidity (%) Winds ( mph kmh ) Pressure ( in mb ) Visibility ( mi km ) Precip ( " mm )
12:58 am 00:58 Clear 68 19.8 52 11 57 57 SSW 7 11 30.09 1019 10 16 N/A
1:58 am 01:58 Clear 64 17.8 51 10.8 64 64 WSW 7 11 30.09 1019 10 16 N/A
2:58 am 02:58 Clear 69 20.5 50 10.1 51 51 SSW 10 17 30.09 1019 10 16 N/A
3:58 am 03:58 Clear 64 17.9 51 10.5 62 62 SW 8 13 30.09 1019 10 16 N/A
4:58 am 04:58 Clear 62 16.9 50 10.1 64 64 W 6 9 30.11 1020 10 16 N/A
5:58 am 05:58 Sunny 62 16.5 50 10.1 66 66 W 9 15 30.13 1020 10 16 N/A
6:58 am 06:58 Sunny 65 18.2 52 10.9 63 63 WNW 7 11 30.15 1021 10 16 N/A
7:58 am 07:58 Sunny 72 22 54 12 53 53 SW 5 7 30.16 1021 10 16 N/A
8:58 am 08:58 Sunny 78 25.4 56 13.4 47 47 N N/A 30.16 1021 10 16 N/A
9:58 am 09:58 Sunny 85 29.4 52 11.2 32 32 SE 9 15 30.16 1022 10 16 N/A
10:58 am 10:58 Sunny 87 30.7 48 9 26 26 SE 17 28 30.15 1021 10 16 N/A
11:58 am 11:58 Sunny 89 31.6 46 7.9 23 23 SSE 18 30 30.14 1021 10 16 N/A
12:58 pm 12:58 Sunny 90 32.3 38 3.1 16 16 SSE 14 22 30.14 1021 10 16 N/A
1:58 pm 13:58 Sunny 91 32.5 36 2 14 14 SE 15 24 30.13 1020 10 16 N/A
2:58 pm 14:58 Sunny 90 32 41 5.2 18 18 S 14 22 30.12 1020 10 16 N/A
3:58 pm 15:58 Sunny 91 32.5 39 4 16 16 S 15 24 30.12 1020 10 16 N/A
4:58 pm 16:58 Sunny 90 32.1 41 5 18 18 S 16 26 30.11 1020 10 16 N/A
5:58 pm 17:58 Sunny 88 31.2 43 6.3 21 21 SSE 17 28 30.09 1019 10 16 N/A
6:58 pm 18:58 Sunny 86 30.1 44 6.5 23 23 SSE 14 22 30.09 1019 10 16 N/A
7:58 pm 19:58 Sunny 80 26.7 46 7.5 30 30 SSE 10 17 30.10 1019 10 16 N/A
8:58 pm 20:58 Clear 73 23 46 7.7 38 38 SSE 9 15 30.11 1020 10 16 N/A
9:58 pm 21:58 Clear 71 21.4 46 7.9 42 42 SSE 10 17 30.13 1020 10 16 N/A
10:58 pm 22:58 Clear 70 21.2 46 8 43 43 S 13 20 30.11 1020 10 16 N/A
11:58 pm 23:58 Clear 68 20 48 8.7 48 48 S 10 17 30.11 1020 10 16 N/A

Powered by AerisWeather